This is the latest recevied weather packets stored in our database for station/object E25WRM. If no packets are shown the sender has not sent any weather packets the latest 10 day(s).
| Time | Temp. | Humidity | Pressure | Rain* | Wind** | Luminosity | Snow |
|---|---|---|---|---|---|---|---|
| 1777913699 | 33.33° C | 29% | 1005 hPa | - | - | 0 W/m² | - |
| 1777912789 | 33.33° C | 30% | 1005 hPa | - | - | 0 W/m² | - |
| 1777911879 | 33.33° C | 29% | 1005 hPa | - | - | 0 W/m² | - |
| 1777910969 | 33.33° C | 30% | 1005 hPa | - | - | 0 W/m² | - |
| 1777910059 | 33.33° C | 30% | 1005 hPa | - | - | 0 W/m² | - |
| 1777909149 | 33.89° C | 30% | 1005 hPa | - | - | 0 W/m² | - |
| 1777908239 | 33.33° C | 31% | 1005 hPa | - | - | 0 W/m² | - |
| 1777907329 | 33.89° C | 33% | 1005 hPa | - | - | 0 W/m² | - |
| 1777906419 | 33.89° C | 32% | 1004 hPa | - | - | 0 W/m² | - |
| 1777905509 | 33.89° C | 32% | 1004 hPa | - | - | 0 W/m² | - |
| 1777904599 | 33.89° C | 32% | 1003 hPa | - | - | 0 W/m² | - |
| 1777903689 | 34.44° C | 32% | 1003 hPa | - | - | 0 W/m² | - |
| 1777902780 | 35° C | 33% | 1003 hPa | - | - | 0 W/m² | - |
| 1777901869 | 35.56° C | 35% | 1003 hPa | - | - | 0 W/m² | - |
| 1777901089 | 36.67° C | 39% | 1003 hPa | - | - | 0 W/m² | - |
| 1777900112 | 37.22° C | 46% | 1003 hPa | - | - | 0 W/m² | - |
| 1777899046 | 37.22° C | 47% | 1002 hPa | - | - | 0 W/m² | - |
| 1777898051 | 37.78° C | 47% | 1003 hPa | - | - | 0 W/m² | - |
| 1777897237 | 37.78° C | 46% | 1002 hPa | - | - | 0 W/m² | - |
| 1777896251 | 37.78° C | 46% | 1002 hPa | - | - | 0 W/m² | - |
| 1777895333 | 37.78° C | 44% | 1002 hPa | - | - | 0 W/m² | - |
| 1777894738 | 38.89° C | 41% | 1001 hPa | - | - | 0 W/m² | - |
| 1777893708 | 39.44° C | 40% | 1001 hPa | - | - | 0 W/m² | - |
| 1777892591 | 38.33° C | 42% | 1001 hPa | - | - | 0 W/m² | - |
| 1777891689 | 37.78° C | 43% | 1001 hPa | - | - | 0 W/m² | - |
* Rain since midnight (hover to see other rain measurements)
** Current wind speed in m/s (hover to see current wind gust speed)